User: anonymous   Login
Location: Columbus
(29.5618°N, 96.6770°W)
Time: 02:00:16
(UTC-06:00)
Language:

Cosmos 2056 Rocket - Orbit

View from above orbital plane
View from above orbital plane
View from above satellite
View from above satellite

Ground track
Ground track

The orbit data is extracted from the following two-line orbital elements,

1 20433U 90004B   17019.79857119  .00000054  00000-0  27430-4 0  9999
2 20433  74.0360 268.5670 0039819  73.7319 330.6228 14.35968931413908
Epoch (UTC): 19 January 2017 19:09:56
Eccentricity: 0.0039819
inclination: 74.0360°
perigee height: 743 km
apogee height: 800 km
right ascension of ascending node: 268.5670°
argument of perigee: 73.7319°
revolutions per day: 14.35968931
mean anomaly at epoch: 330.6228°
orbit number at epoch: 41390

The dashed part of the orbit path shows where the satellite is in the earth's shadow,  

DLR